{"data":{"norad_id":60103,"epoch":"2026-09-21T05:06:12.534912Z","epoch_age_seconds":116061,"freshness":"FRESH","line1":"1 60103U 24117N   26264.21264508 -.00007231  00000+0 -20286-3 0  9998","line2":"2 60103  53.1571 206.6918 0001716  78.0037 282.1158 15.34430317126856","mean_motion":15.34430317,"eccentricity":0.0001716,"inclination_deg":53.1571,"raan_deg":206.6918,"arg_perigee_deg":78.0037,"mean_anomaly_deg":282.1158,"bstar":-0.00020286,"rev_number":12685,"period_min":93.845903854101,"perigee_km":461.43926045486,"apogee_km":463.78700590057,"semimajor_km":6840.7501331777,"source":"CELESTRAK","updated_at":"2026-09-22T09:00:49.152082Z"}}